| time (UTC) | temp F | wind direction | speed knots | gust knots | rain 1hr in | rain 24hr in | rain mn in | humidity % | barometer mb |
| 20260505033028 | 74 | 144 | 3.5 | 7.8 | 0.00 | 0.00 | 0.00 | 79 | 1007.3 |
| 20260505031515 | 74 | 121 | 3.5 | 8.7 | 0.00 | 0.00 | 0.00 | 78 | 1007.2 |
| 20260505030013 | 74 | 146 | 1.7 | 8.7 | 0.00 | 0.00 | 0.00 | 76 | 1007.2 |
| 20260505024529 | 75 | 225 | 2.6 | 7.0 | 0.00 | 0.00 | 0.00 | 74 | 1007.1 |
| 20260505023012 | 75 | 132 | 2.6 | 7.0 | 0.00 | 0.00 | 0.00 | 73 | 1007.1 |
| 20260505021526 | 75 | 166 | 1.7 | 7.8 | 0.00 | 0.00 | 0.00 | 72 | 1007.1 |
| 20260505020010 | 75 | 170 | 0.9 | 4.3 | 0.00 | 0.00 | 0.00 | 70 | 1006.8 |
| 20260505014513 | 76 | 194 | 3.5 | 8.7 | 0.00 | 0.00 | 0.00 | 69 | 1006.9 |
| 20260505013009 | 76 | 193 | 2.6 | 7.0 | 0.00 | 0.00 | 0.00 | 67 | 1007.0 |
| 20260505011508 | 77 | 134 | 1.7 | 8.7 | 0.00 | 0.00 | 0.00 | 66 | 1007.0 |
| 20260505010007 | 77 | 124 | 1.7 | 7.8 | 0.00 | 0.00 | 0.00 | 65 | 1007.0 |
| 20260505004516 | 78 | 128 | 3.5 | 14.8 | 0.00 | 0.00 | 0.00 | 64 | 1006.9 |
| 20260505003006 | 79 | 160 | 3.5 | 7.8 | 0.00 | 0.00 | 0.00 | 64 | 1006.9 |
| 20260505001505 | 79 | 193 | 2.6 | 7.0 | 0.00 | 0.00 | 0.00 | 63 | 1006.8 |
| 20260505000004 | 80 | 124 | 3.5 | 9.6 | 0.00 | 0.00 | 0.00 | 62 | 1006.8 |
| 20260504234502 | 80 | 125 | 4.3 | 10.4 | 0.00 | 0.00 | 0.00 | 60 | 1006.8 |
| 20260504233002 | 81 | 144 | 5.2 | 10.4 | 0.00 | 0.00 | 0.00 | 60 | 1007.1 |
| 20260504231600 | 81 | 198 | 6.1 | 11.3 | 0.00 | 0.00 | 0.00 | 59 | 1007.1 |
| 20260504230101 | 82 | 136 | 4.3 | 12.2 | 0.00 | 0.00 | 0.00 | 58 | 1007.3 |
| 20260504224558 | 82 | 167 | 5.2 | 13.0 | 0.00 | 0.00 | 0.00 | 57 | 1007.4 |
| 20260504223102 | 83 | 134 | 6.1 | 13.0 | 0.00 | 0.00 | 0.00 | 56 | 1007.6 |
| 20260504221604 | 83 | 67 | 3.5 | 10.4 | 0.00 | 0.00 | 0.00 | 57 | 1007.7 |
| 20260504220117 | 83 | 213 | 3.5 | 13.0 | 0.00 | 0.00 | 0.00 | 57 | 1007.7 |
| 20260504214549 | 82 | 192 | 6.1 | 11.3 | 0.00 | 0.00 | 0.00 | 58 | 1008.0 |
| 20260504213102 | 82 | 168 | 4.3 | 10.4 | 0.00 | 0.00 | 0.00 | 58 | 1008.0 |
| 20260504211544 | 82 | 171 | 4.3 | 10.4 | 0.00 | 0.00 | 0.00 | 59 | 1008.5 |
| 20260504210043 | 82 | 163 | 7.0 | 12.2 | 0.00 | 0.00 | 0.00 | 57 | 1008.8 |
| 20260504204557 | 82 | 182 | 5.2 | 8.7 | 0.00 | 0.00 | 0.00 | 57 | 1009.1 |
| 20260504203041 | 82 | 140 | 4.3 | 12.2 | 0.00 | 0.00 | 0.00 | 58 | 1009.3 |
| 20260504201537 | 82 | 163 | 6.1 | 11.3 | 0.00 | 0.00 | 0.00 | 57 | 1009.5 |
| 20260504200041 | 82 | 134 | 4.3 | 10.4 | 0.00 | 0.00 | 0.00 | 57 | 1010.0 |
| 20260504194538 | 81 | 182 | 4.3 | 12.2 | 0.00 | 0.00 | 0.00 | 57 | 1010.2 |
| 20260504193031 | 81 | 130 | 4.3 | 13.9 | 0.00 | 0.00 | 0.00 | 59 | 1010.3 |
| 20260504191527 | 81 | 221 | 3.5 | 10.4 | 0.00 | 0.00 | 0.00 | 59 | 1010.7 |
| 20260504190025 | 80 | 132 | 4.3 | 9.6 | 0.00 | 0.00 | 0.00 | 61 | 1010.9 |
| 20260504184532 | 79 | 217 | 5.2 | 11.3 | 0.00 | 0.00 | 0.00 | 60 | 1011.0 |
| 20260504183019 | 79 | 184 | 4.3 | 11.3 | 0.00 | 0.00 | 0.00 | 62 | 1011.1 |
| 20260504181516 | 78 | 162 | 5.2 | 10.4 | 0.00 | 0.00 | 0.00 | 63 | 1011.5 |
| 20260504180013 | 78 | 184 | 5.2 | 12.2 | 0.00 | 0.00 | 0.00 | 62 | 1011.7 |
| 20260504174511 | 77 | 139 | 5.2 | 13.9 | 0.00 | 0.00 | 0.00 | 63 | 1012.1 |
| 20260504173009 | 77 | 198 | 6.1 | 13.9 | 0.00 | 0.00 | 0.00 | 63 | 1012.2 |
| 20260504171504 | 76 | 148 | 4.3 | 11.3 | 0.00 | 0.00 | 0.00 | 64 | 1012.6 |
| 20260504081552 | 63 | 166 | 2.6 | 8.7 | 0.00 | 0.00 | 0.00 | 77 | 1013.7 |
| 20260504050023 | 65 | 154 | 4.3 | 8.7 | 0.00 | 0.00 | 0.00 | 65 | 1016.2 |
| 20260504044523 | 65 | 202 | 1.7 | 10.4 | 0.00 | 0.00 | 0.00 | 66 | 1016.1 |
| 20260504043034 | 63 | 130 | 4.3 | 7.8 | 0.00 | 0.00 | 0.00 | 67 | 1016.3 |
| 20260504041521 | 61 | 117 | 1.7 | 4.3 | 0.00 | 0.00 | 0.00 | 70 | 1016.3 |
| 20260504040022 | 62 | 163 | 0.0 | 0.0 | 0.00 | 0.00 | 0.00 | 69 | 1016.3 |
| 20260504034520 | 63 | 163 | 0.0 | 0.0 | 0.00 | 0.00 | 0.00 | 69 | 1016.5 |